Simultaneous Nadir Overpasses (SNOs) Predictions

Prediction of SNOs between GOES-16 and NOAA-20 Satellite Orbit:

Table of predicted SNOs for the next 14.0 days since TLE Epoch: 8/29/2025
Index Date Time (GOES-16) GOES-16 Lat,Lon NOAA-20 Lat,Lon Distance(km) Time Diff (sec)
1 08/30/2025 08:32:31 -0.10,-104.69 0.32,-106.65 223.74 80
2 08/31/2025 08:11:06 -0.10,-104.68 -0.66,-102.11 292.36 80
3 09/01/2025 20:33:02 0.11,-104.68 -0.50,-107.42 311.65 80
4 09/02/2025 20:16:56 0.11,-104.68 0.49,-102.88 204.65 80
5 09/04/2025 08:38:44 -0.12,-104.67 0.67,-108.15 396.80 80
6 09/05/2025 08:17:18 -0.12,-104.66 -0.33,-103.61 119.30 80
7 09/06/2025 20:39:14 0.12,-104.66 -0.83,-108.91 484.96 80
8 09/07/2025 20:23:09 0.12,-104.66 0.17,-104.38 31.64 80
9 09/10/2025 08:26:11 -0.12,-104.64 -0.01,-105.11 52.75 80
10 09/11/2025 08:04:45 -0.12,-104.64 -1.01,-100.57 463.33 80
